Regional Weather Roundup
Issued by NWS

Home | Current Version | Previous Version | Text Only | Print | Product List | Glossary Off
Versions: 1 2 3 4 5 6 7 8 9 10 11 12 13 14 15 16 17 18 19 20 21 22 23 24 25 26 27 28 29 30 31 32 33 34 35 36 37 38 39 40 41 42 43 44 45 46 47 48 49 50

000
ASUS43 KBIS 191610
RWRND

NORTH DAKOTA REGIONAL WEATHER ROUNDUP
NATIONAL WEATHER SERVICE BISMARCK ND
1100 AM CDT SUN APR 19 2015

NOTE: "FAIR" INDICATES FEW OR NO CLOUDS BELOW 12,000 FEET WITH NO
SIGNIFICANT WEATHER AND/OR OBSTRUCTIONS TO VISIBILITY.


NDZ001>003-009>011-017-191700-
NORTHWEST NORTH DAKOTA

CITY           SKY/WX    TMP DP  RH WIND       PRES   REMARKS
WILLISTON      CLOUDY    42  33  70 NW22G31   30.03R
MINOT          CLOUDY    44  36  73 W26G32    29.87F
MINOT AFB      DRIZZLE   40  40 100 NW20      29.87R
$$

NDZ018>021-031>035-040>046-191700-
SOUTHWEST NORTH DAKOTA

CITY           SKY/WX    TMP DP  RH WIND       PRES   REMARKS
BISMARCK       PTSUNNY   47  36  65 NW25G37   29.90S
DICKINSON      CLOUDY    40  33  76 NW25      29.97S
GARRISON         N/A     43  37  79 NW29G39   29.89S
HETTINGER ARPT CLOUDY    42  31  64 NW29G39   30.00S
$$

NDZ004>008-012>016-024-026-027-054-191700-
NORTHEAST NORTH DAKOTA

CITY           SKY/WX    TMP DP  RH WIND       PRES   REMARKS
GRAND FORKS    LGT RAIN  45  43  93 NW17G23   29.70F
GRND FRKS AFB  LGT RAIN  45  41  88 NW18G25   29.70F
DEVILS LAKE    CLOUDY    43  37  81 NW16G22   29.77S
$$

NDZ022-023-025-028>030-036>039-047>053-191700-
SOUTHEAST NORTH DAKOTA

CITY           SKY/WX    TMP DP  RH WIND       PRES   REMARKS
FARGO          CLOUDY    46  41  82 NW25G35   29.70F
JAMESTOWN      PTSUNNY   46  38  73 NW21      29.77F
$$




USA.gov is the U.S. government's official web portal to all federal, state and local government web resources and services.